ICO G1

Last updated on Wed Sep 09 2026 00:02:58 GMT+0000 (Coordinated Universal Time)

1 32763U 08016A 26251.49795551 -.00000189 00000+0 00000+0 0 9994 2 32763 5.5394 35.8629 0002313 118.6103 279.5055 1.00271375 67384
UTC large
Height (km)
Speed (km/s)
/
Latitude / Longitude
Inclination (degrees)
Orbital Period (minutes)
Azimuth
Elevation
Range (km)
Doppler Factor

Next 0 passes for location: London (51.5072 / 0.1276)

No passes found over London.
ICO G1